Year,Month,Day,Hour,Minute,Value (Times are PST for temperature in C)
2021,06,29,00,00,27.90
2021,06,29,00,01,27.90
2021,06,29,00,02,27.80
2021,06,29,00,03,27.80
2021,06,29,00,04,27.80
2021,06,29,00,05,27.80
2021,06,29,00,06,27.80
2021,06,29,00,07,27.70
2021,06,29,00,08,27.70
2021,06,29,00,09,27.70
2021,06,29,00,10,27.70
2021,06,29,00,11,27.70
2021,06,29,00,12,27.70
2021,06,29,00,13,27.70
2021,06,29,00,14,27.70
2021,06,29,00,15,27.70
2021,06,29,00,16,27.70
2021,06,29,00,17,27.70
2021,06,29,00,18,27.70
2021,06,29,00,19,27.70
2021,06,29,00,20,27.70
2021,06,29,00,21,27.70
2021,06,29,00,22,27.70
2021,06,29,00,23,27.70
2021,06,29,00,24,27.70
2021,06,29,00,25,27.70
2021,06,29,00,26,27.70
2021,06,29,00,27,27.60
2021,06,29,00,28,27.60
2021,06,29,00,29,27.60
2021,06,29,00,30,27.60
2021,06,29,00,31,27.60
2021,06,29,00,32,27.60
2021,06,29,00,33,27.60
2021,06,29,00,34,27.60
2021,06,29,00,35,27.60
2021,06,29,00,36,27.60
2021,06,29,00,37,27.60
2021,06,29,00,38,27.60
2021,06,29,00,39,27.50
2021,06,29,00,40,27.50
2021,06,29,00,41,27.50
2021,06,29,00,42,27.50
2021,06,29,00,43,27.40
2021,06,29,00,44,27.40
2021,06,29,00,45,27.40
2021,06,29,00,46,27.40
2021,06,29,00,47,27.40
2021,06,29,00,48,27.30
2021,06,29,00,49,27.30
2021,06,29,00,50,27.30
2021,06,29,00,51,27.30
2021,06,29,00,52,27.30
2021,06,29,00,53,27.30
2021,06,29,00,54,27.30
2021,06,29,00,55,27.30
2021,06,29,00,56,27.20
2021,06,29,00,57,27.20
2021,06,29,00,58,27.20
2021,06,29,00,59,27.20
2021,06,29,01,00,27.20
2021,06,29,01,01,27.10
2021,06,29,01,02,27.10
2021,06,29,01,03,27.10
2021,06,29,01,04,27.10
2021,06,29,01,05,27.10
2021,06,29,01,06,27.00
2021,06,29,01,07,27.00
2021,06,29,01,08,27.00
2021,06,29,01,09,27.00
2021,06,29,01,10,26.90
2021,06,29,01,11,26.90
2021,06,29,01,12,26.90
2021,06,29,01,13,26.90
2021,06,29,01,14,26.90
2021,06,29,01,15,26.80
2021,06,29,01,16,26.80
2021,06,29,01,17,26.80
2021,06,29,01,18,26.80
2021,06,29,01,19,26.80
2021,06,29,01,20,26.70
2021,06,29,01,21,26.70
2021,06,29,01,22,26.70
2021,06,29,01,23,26.70
2021,06,29,01,24,26.70
2021,06,29,01,25,26.60
2021,06,29,01,26,26.60
2021,06,29,01,27,26.60
2021,06,29,01,28,26.60
2021,06,29,01,29,26.60
2021,06,29,01,30,26.60
2021,06,29,01,31,26.60
2021,06,29,01,32,26.60
2021,06,29,01,33,26.60
2021,06,29,01,34,26.60
2021,06,29,01,35,26.60
2021,06,29,01,36,26.60
2021,06,29,01,37,26.60
2021,06,29,01,38,26.60
2021,06,29,01,39,26.50
2021,06,29,01,40,26.50
2021,06,29,01,41,26.50
2021,06,29,01,42,26.50
2021,06,29,01,43,26.50
2021,06,29,01,44,26.50
2021,06,29,01,45,26.50
2021,06,29,01,46,26.50
2021,06,29,01,47,26.50
2021,06,29,01,48,26.50
2021,06,29,01,49,26.50
2021,06,29,01,50,26.40
2021,06,29,01,51,26.40
2021,06,29,01,52,26.40
2021,06,29,01,53,26.50
2021,06,29,01,54,26.50
2021,06,29,01,55,26.40
2021,06,29,01,56,26.50
2021,06,29,01,57,26.50
2021,06,29,01,58,26.40
2021,06,29,01,59,26.40
2021,06,29,02,00,26.40
2021,06,29,02,01,26.40
2021,06,29,02,02,26.40
2021,06,29,02,03,26.40
2021,06,29,02,04,26.30
2021,06,29,02,05,26.30
2021,06,29,02,06,26.30
2021,06,29,02,07,26.30
2021,06,29,02,08,26.20
2021,06,29,02,09,26.20
2021,06,29,02,10,26.20
2021,06,29,02,11,26.10
2021,06,29,02,12,26.10
2021,06,29,02,13,26.10
2021,06,29,02,14,26.10
2021,06,29,02,15,26.00
2021,06,29,02,16,26.00
2021,06,29,02,17,26.00
2021,06,29,02,18,25.90
2021,06,29,02,19,25.90
2021,06,29,02,20,25.90
2021,06,29,02,21,25.80
2021,06,29,02,22,25.80
2021,06,29,02,23,25.80
2021,06,29,02,24,25.80
2021,06,29,02,25,25.70
2021,06,29,02,26,25.70
2021,06,29,02,27,25.60
2021,06,29,02,28,25.60
2021,06,29,02,29,25.60
2021,06,29,02,30,25.60
2021,06,29,02,31,25.60
2021,06,29,02,32,25.60
2021,06,29,02,33,25.60
2021,06,29,02,34,25.60
2021,06,29,02,35,25.60
2021,06,29,02,36,25.60
2021,06,29,02,37,25.60
2021,06,29,02,38,25.60
2021,06,29,02,39,25.60
2021,06,29,02,40,25.60
2021,06,29,02,41,25.60
2021,06,29,02,42,25.60
2021,06,29,02,43,25.60
2021,06,29,02,44,25.60
2021,06,29,02,45,25.60
2021,06,29,02,46,25.60
2021,06,29,02,47,25.50
2021,06,29,02,48,25.50
2021,06,29,02,49,25.50
2021,06,29,02,50,25.50
2021,06,29,02,51,25.50
2021,06,29,02,52,25.40
2021,06,29,02,53,25.40
2021,06,29,02,54,25.40
2021,06,29,02,55,25.40
2021,06,29,02,56,25.40
2021,06,29,02,57,25.40
2021,06,29,02,58,25.30
2021,06,29,02,59,25.30
2021,06,29,03,00,25.30
2021,06,29,03,01,25.30
2021,06,29,03,02,25.30
2021,06,29,03,03,25.30
2021,06,29,03,04,25.20
2021,06,29,03,05,25.20
2021,06,29,03,06,25.20
2021,06,29,03,07,25.20
2021,06,29,03,08,25.30
2021,06,29,03,09,25.30
2021,06,29,03,10,25.30
2021,06,29,03,11,25.20
2021,06,29,03,12,25.20
2021,06,29,03,13,25.20
2021,06,29,03,14,25.20
2021,06,29,03,15,25.20
2021,06,29,03,16,25.20
2021,06,29,03,17,25.20
2021,06,29,03,18,25.20
2021,06,29,03,19,25.10
2021,06,29,03,20,25.10
2021,06,29,03,21,25.10
2021,06,29,03,22,25.00
2021,06,29,03,23,25.00
2021,06,29,03,24,24.90
2021,06,29,03,25,24.90
2021,06,29,03,26,24.90
2021,06,29,03,27,24.90
2021,06,29,03,28,24.90
2021,06,29,03,29,24.90
2021,06,29,03,30,25.00
2021,06,29,03,31,25.00
2021,06,29,03,32,25.00
2021,06,29,03,33,25.00
2021,06,29,03,34,25.10
2021,06,29,03,35,25.10
2021,06,29,03,36,25.10
2021,06,29,03,37,25.00
2021,06,29,03,38,25.00
2021,06,29,03,39,25.00
2021,06,29,03,40,24.90
2021,06,29,03,41,24.90
2021,06,29,03,42,25.00
2021,06,29,03,43,25.00
2021,06,29,03,44,24.90
2021,06,29,03,45,24.90
2021,06,29,03,46,24.90
2021,06,29,03,47,24.90
2021,06,29,03,48,24.90
2021,06,29,03,49,24.90
2021,06,29,03,50,24.80
2021,06,29,03,51,24.80
2021,06,29,03,52,24.80
2021,06,29,03,53,24.80
2021,06,29,03,54,24.80
2021,06,29,03,55,24.80
2021,06,29,03,56,24.80
2021,06,29,03,57,24.80
2021,06,29,03,58,24.70
2021,06,29,03,59,24.70
2021,06,29,04,00,24.70
2021,06,29,04,01,24.70
2021,06,29,04,02,24.70
2021,06,29,04,03,24.60
2021,06,29,04,04,24.60
2021,06,29,04,05,24.60
2021,06,29,04,06,24.60
2021,06,29,04,07,24.60
2021,06,29,04,08,24.60
2021,06,29,04,09,24.60
2021,06,29,04,10,24.60
2021,06,29,04,11,24.50
2021,06,29,04,12,24.50
2021,06,29,04,13,24.50
2021,06,29,04,14,24.40
2021,06,29,04,15,24.40
2021,06,29,04,16,24.40
2021,06,29,04,17,24.40
2021,06,29,04,18,24.40
2021,06,29,04,19,24.40
2021,06,29,04,20,24.40
2021,06,29,04,21,24.40
2021,06,29,04,22,24.40
2021,06,29,04,23,24.40
2021,06,29,04,24,24.30
2021,06,29,04,25,24.30
2021,06,29,04,26,24.30
2021,06,29,04,27,24.30
2021,06,29,04,28,24.30
2021,06,29,04,29,24.30
2021,06,29,04,30,24.30
2021,06,29,04,31,24.30
2021,06,29,04,32,24.30
2021,06,29,04,33,24.20
2021,06,29,04,34,24.20
2021,06,29,04,35,24.20
2021,06,29,04,36,24.20
2021,06,29,04,37,24.20
2021,06,29,04,38,24.20
2021,06,29,04,39,24.20
2021,06,29,04,40,24.20
2021,06,29,04,41,24.10
2021,06,29,04,42,24.10
2021,06,29,04,43,24.10
2021,06,29,04,44,24.10
2021,06,29,04,45,24.10
2021,06,29,04,46,24.10
2021,06,29,04,47,24.10
2021,06,29,04,48,24.10
2021,06,29,04,49,24.10
2021,06,29,04,50,24.10
2021,06,29,04,51,24.10
2021,06,29,04,52,24.00
2021,06,29,04,53,24.00
2021,06,29,04,54,24.00
2021,06,29,04,55,24.00
2021,06,29,04,56,24.00
2021,06,29,04,57,23.90
2021,06,29,04,58,23.90
2021,06,29,04,59,23.90
2021,06,29,05,00,23.90
2021,06,29,05,01,23.90
2021,06,29,05,02,23.90
2021,06,29,05,03,23.90
2021,06,29,05,04,23.90
2021,06,29,05,05,23.90
2021,06,29,05,06,23.90
2021,06,29,05,07,23.90
2021,06,29,05,08,23.90
2021,06,29,05,09,23.90
2021,06,29,05,10,23.90
2021,06,29,05,11,23.80
2021,06,29,05,12,23.80
2021,06,29,05,13,23.80
2021,06,29,05,14,23.80
2021,06,29,05,15,23.80
2021,06,29,05,16,23.80
2021,06,29,05,17,23.80
2021,06,29,05,18,23.80
2021,06,29,05,19,23.80
2021,06,29,05,20,23.80
2021,06,29,05,21,23.80
2021,06,29,05,22,23.80
2021,06,29,05,23,23.80
2021,06,29,05,24,23.80
2021,06,29,05,25,23.70
2021,06,29,05,26,23.70
2021,06,29,05,27,23.70
2021,06,29,05,28,23.70
2021,06,29,05,29,23.70
2021,06,29,05,30,23.70
2021,06,29,05,31,23.70
2021,06,29,05,32,23.70
2021,06,29,05,33,23.70
2021,06,29,05,34,23.70
2021,06,29,05,35,23.60
2021,06,29,05,36,23.60
2021,06,29,05,37,23.60
2021,06,29,05,38,23.60
2021,06,29,05,39,23.60
2021,06,29,05,40,23.60
2021,06,29,05,41,23.50
2021,06,29,05,42,23.50
2021,06,29,05,43,23.50
2021,06,29,05,44,23.50
2021,06,29,05,45,23.50
2021,06,29,05,46,23.50
2021,06,29,05,47,23.50
2021,06,29,05,48,23.50
2021,06,29,05,49,23.50
2021,06,29,05,50,23.50
2021,06,29,05,51,23.40
2021,06,29,05,52,23.40
2021,06,29,05,53,23.40
2021,06,29,05,54,23.40
2021,06,29,05,55,23.40
2021,06,29,05,56,23.40
2021,06,29,05,57,23.40
2021,06,29,05,58,23.40
2021,06,29,05,59,23.40
2021,06,29,06,00,23.40
2021,06,29,06,01,23.40
2021,06,29,06,02,23.40
2021,06,29,06,03,23.40
2021,06,29,06,04,23.40
2021,06,29,06,05,23.40
2021,06,29,06,06,23.40
2021,06,29,06,07,23.40
2021,06,29,06,08,23.40
2021,06,29,06,09,23.40
2021,06,29,06,10,23.50
2021,06,29,06,11,23.50
2021,06,29,06,12,23.50
2021,06,29,06,13,23.50
2021,06,29,06,14,23.50
2021,06,29,06,15,23.50
2021,06,29,06,16,23.50
2021,06,29,06,17,23.50
2021,06,29,06,18,23.50
2021,06,29,06,19,23.50
2021,06,29,06,20,23.50
2021,06,29,06,21,23.50
2021,06,29,06,22,23.50
2021,06,29,06,23,23.50
2021,06,29,06,24,23.50
2021,06,29,06,25,23.50
2021,06,29,06,26,23.50
2021,06,29,06,27,23.50
2021,06,29,06,28,23.50
2021,06,29,06,29,23.50
2021,06,29,06,30,23.40
2021,06,29,06,31,23.40
2021,06,29,06,32,23.40
2021,06,29,06,33,23.50
2021,06,29,06,34,23.50
2021,06,29,06,35,23.50
2021,06,29,06,36,23.50
2021,06,29,06,37,23.50
2021,06,29,06,38,23.40
2021,06,29,06,39,23.40
2021,06,29,06,40,23.40
2021,06,29,06,41,23.40
2021,06,29,06,42,23.40
2021,06,29,06,43,23.40
2021,06,29,06,44,23.30
2021,06,29,06,45,23.30
2021,06,29,06,46,23.30
2021,06,29,06,47,23.30
2021,06,29,06,48,23.20
2021,06,29,06,49,23.20
2021,06,29,06,50,23.20
2021,06,29,06,51,23.20
2021,06,29,06,52,23.20
2021,06,29,06,53,23.10
2021,06,29,06,54,23.10
2021,06,29,06,55,23.10
2021,06,29,06,56,23.10
2021,06,29,06,57,23.10
2021,06,29,06,58,23.10
2021,06,29,06,59,23.10
2021,06,29,07,00,23.10
2021,06,29,07,01,23.10
2021,06,29,07,02,23.10
2021,06,29,07,03,23.10
2021,06,29,07,04,23.10
2021,06,29,07,05,23.10
2021,06,29,07,06,23.10
2021,06,29,07,07,23.10
2021,06,29,07,08,23.10
2021,06,29,07,09,23.10
2021,06,29,07,10,23.10
2021,06,29,07,11,23.10
2021,06,29,07,12,23.10
2021,06,29,07,13,23.10
2021,06,29,07,14,23.20
2021,06,29,07,15,23.20
2021,06,29,07,16,23.20
2021,06,29,07,17,23.20
2021,06,29,07,18,23.20
2021,06,29,07,19,23.20
2021,06,29,07,20,23.20
2021,06,29,07,21,23.20
2021,06,29,07,22,23.20
2021,06,29,07,23,23.20
2021,06,29,07,24,23.20
2021,06,29,07,25,23.20
2021,06,29,07,26,23.20
2021,06,29,07,27,23.20
2021,06,29,07,28,23.20
2021,06,29,07,29,23.20
2021,06,29,07,30,23.20
2021,06,29,07,31,23.20
2021,06,29,07,32,23.20
2021,06,29,07,33,23.20
2021,06,29,07,34,23.20
2021,06,29,07,35,23.20
2021,06,29,07,36,23.20
2021,06,29,07,37,23.30
2021,06,29,07,38,23.30
2021,06,29,07,39,23.30
2021,06,29,07,40,23.30
2021,06,29,07,41,23.30
2021,06,29,07,42,23.30
2021,06,29,07,43,23.30
2021,06,29,07,44,23.30
2021,06,29,07,45,23.30
2021,06,29,07,46,23.30
2021,06,29,07,47,23.40
2021,06,29,07,48,23.40
2021,06,29,07,49,23.40
2021,06,29,07,50,23.40
2021,06,29,07,51,23.40
2021,06,29,07,52,23.40
2021,06,29,07,53,23.40
2021,06,29,07,54,23.40
2021,06,29,07,55,23.40
2021,06,29,07,56,23.40
2021,06,29,07,57,23.40
2021,06,29,07,58,23.40
2021,06,29,07,59,23.40
2021,06,29,08,00,23.40
2021,06,29,08,01,23.40
2021,06,29,08,02,23.40
2021,06,29,08,03,23.40
2021,06,29,08,04,23.40
2021,06,29,08,05,23.40
2021,06,29,08,06,23.40
2021,06,29,08,07,23.40
2021,06,29,08,08,23.40
2021,06,29,08,09,23.40
2021,06,29,08,10,23.40
2021,06,29,08,11,23.30
2021,06,29,08,12,23.30
2021,06,29,08,13,23.30
2021,06,29,08,14,23.30
2021,06,29,08,15,23.20
2021,06,29,08,16,23.20
2021,06,29,08,17,23.20
2021,06,29,08,18,23.20
2021,06,29,08,19,23.20
2021,06,29,08,20,23.30
2021,06,29,08,21,23.30
2021,06,29,08,22,23.30
2021,06,29,08,23,23.30
2021,06,29,08,24,23.40
2021,06,29,08,25,23.40
2021,06,29,08,26,23.40
2021,06,29,08,27,23.50
2021,06,29,08,28,23.50
2021,06,29,08,29,23.50
2021,06,29,08,30,23.50
2021,06,29,08,31,23.50
2021,06,29,08,32,23.50
2021,06,29,08,33,23.60
2021,06,29,08,34,23.60
2021,06,29,08,35,23.60
2021,06,29,08,36,23.70
2021,06,29,08,37,23.70
2021,06,29,08,38,23.80
2021,06,29,08,39,23.80
2021,06,29,08,40,23.80
2021,06,29,08,41,23.80
2021,06,29,08,42,23.80
2021,06,29,08,43,23.80
2021,06,29,08,44,23.90
2021,06,29,08,45,23.90
2021,06,29,08,46,23.90
2021,06,29,08,47,24.00
2021,06,29,08,48,24.00
2021,06,29,08,49,24.10
2021,06,29,08,50,24.20
2021,06,29,08,51,24.20
2021,06,29,08,52,24.20
2021,06,29,08,53,24.20
2021,06,29,08,54,24.30
2021,06,29,08,55,24.30
2021,06,29,08,56,24.30
2021,06,29,08,57,24.30
2021,06,29,08,58,24.40
2021,06,29,08,59,24.40
2021,06,29,09,00,24.40
2021,06,29,09,01,24.40
2021,06,29,09,02,24.50
2021,06,29,09,03,24.50
2021,06,29,09,04,24.50
2021,06,29,09,05,24.50
2021,06,29,09,06,24.50
2021,06,29,09,07,24.60
2021,06,29,09,08,24.60
2021,06,29,09,09,24.70
2021,06,29,09,10,24.70
2021,06,29,09,11,24.70
2021,06,29,09,12,24.80
2021,06,29,09,13,24.80
2021,06,29,09,14,24.80
2021,06,29,09,15,24.80
2021,06,29,09,16,24.90
2021,06,29,09,17,25.00
2021,06,29,09,18,25.00
2021,06,29,09,19,25.10
2021,06,29,09,20,25.10
2021,06,29,09,21,25.10
2021,06,29,09,22,25.10
2021,06,29,09,23,25.20
2021,06,29,09,24,25.20
2021,06,29,09,25,25.20
2021,06,29,09,26,25.10
2021,06,29,09,27,25.10
2021,06,29,09,28,25.10
2021,06,29,09,29,25.10
2021,06,29,09,30,25.10
2021,06,29,09,31,25.00
2021,06,29,09,32,25.00
2021,06,29,09,33,24.90
2021,06,29,09,34,24.90
2021,06,29,09,35,24.90
2021,06,29,09,36,24.90
2021,06,29,09,37,25.00
2021,06,29,09,38,25.00
2021,06,29,09,39,25.10
2021,06,29,09,40,25.20
2021,06,29,09,41,25.20
2021,06,29,09,42,25.30
2021,06,29,09,43,25.30
2021,06,29,09,44,25.40
2021,06,29,09,45,25.40
2021,06,29,09,46,25.50
2021,06,29,09,47,25.50
2021,06,29,09,48,25.60
2021,06,29,09,49,25.70
2021,06,29,09,50,25.80
2021,06,29,09,51,25.80
2021,06,29,09,52,25.90
2021,06,29,09,53,25.90
2021,06,29,09,54,26.00
2021,06,29,09,55,26.00
2021,06,29,09,56,26.00
2021,06,29,09,57,26.00
2021,06,29,09,58,25.90
2021,06,29,09,59,25.90
2021,06,29,10,00,25.90
2021,06,29,10,01,26.00
2021,06,29,10,02,26.20
2021,06,29,10,03,26.40
2021,06,29,10,04,26.50
2021,06,29,10,05,26.60
2021,06,29,10,06,26.80
2021,06,29,10,07,26.80
2021,06,29,10,08,26.90
2021,06,29,10,09,27.00
2021,06,29,10,10,27.00
2021,06,29,10,11,26.90
2021,06,29,10,12,26.80
2021,06,29,10,13,26.80
2021,06,29,10,14,26.80
2021,06,29,10,15,26.80
2021,06,29,10,16,26.80
2021,06,29,10,17,26.70
2021,06,29,10,18,26.70
2021,06,29,10,19,26.70
2021,06,29,10,20,26.60
2021,06,29,10,21,26.60
2021,06,29,10,22,26.50
2021,06,29,10,23,26.50
2021,06,29,10,24,26.50
2021,06,29,10,25,26.50
2021,06,29,10,26,26.50
2021,06,29,10,27,26.50
2021,06,29,10,28,26.60
2021,06,29,10,29,26.60
2021,06,29,10,30,26.70
2021,06,29,10,31,26.80
2021,06,29,10,32,26.90
2021,06,29,10,33,27.00
2021,06,29,10,34,27.10
2021,06,29,10,35,27.20
2021,06,29,10,36,27.20
2021,06,29,10,37,27.40
2021,06,29,10,38,27.40
2021,06,29,10,39,27.50
2021,06,29,10,40,27.60
2021,06,29,10,41,27.60
2021,06,29,10,42,27.70
2021,06,29,10,43,27.70
2021,06,29,10,44,27.80
2021,06,29,10,45,27.80
2021,06,29,10,46,27.80
2021,06,29,10,47,27.80
2021,06,29,10,48,27.80
2021,06,29,10,49,27.80
2021,06,29,10,50,27.70
2021,06,29,10,51,27.70
2021,06,29,10,52,27.60
2021,06,29,10,53,27.60
2021,06,29,10,54,27.60
2021,06,29,10,55,27.70
2021,06,29,10,56,27.70
2021,06,29,10,57,27.70
2021,06,29,10,58,27.60
2021,06,29,10,59,27.60
2021,06,29,11,00,27.60
2021,06,29,11,01,27.70
2021,06,29,11,02,27.70
2021,06,29,11,03,27.80
2021,06,29,11,04,27.80
2021,06,29,11,05,27.80
2021,06,29,11,06,27.70
2021,06,29,11,07,27.70
2021,06,29,11,08,27.60
2021,06,29,11,09,27.60
2021,06,29,11,10,27.50
2021,06,29,11,11,27.40
2021,06,29,11,12,27.40
2021,06,29,11,13,27.40
2021,06,29,11,14,27.40
2021,06,29,11,15,27.50
2021,06,29,11,16,27.60
2021,06,29,11,17,27.70
2021,06,29,11,18,27.80
2021,06,29,11,19,27.90
2021,06,29,11,20,27.90
2021,06,29,11,21,28.00
2021,06,29,11,22,28.10
2021,06,29,11,23,28.10
2021,06,29,11,24,28.00
2021,06,29,11,25,27.90
2021,06,29,11,26,27.80
2021,06,29,11,27,27.80
2021,06,29,11,28,27.80
2021,06,29,11,29,27.80
2021,06,29,11,30,27.80
2021,06,29,11,31,27.70
2021,06,29,11,32,27.60
2021,06,29,11,33,27.60
2021,06,29,11,34,27.60
2021,06,29,11,35,27.60
2021,06,29,11,36,27.60
2021,06,29,11,37,27.70
2021,06,29,11,38,27.70
2021,06,29,11,39,27.70
2021,06,29,11,40,27.80
2021,06,29,11,41,27.80
2021,06,29,11,42,27.70
2021,06,29,11,43,27.60
2021,06,29,11,44,27.60
2021,06,29,11,45,27.60
2021,06,29,11,46,27.60
2021,06,29,11,47,27.70
2021,06,29,11,48,27.70
2021,06,29,11,49,27.60
2021,06,29,11,50,27.60
2021,06,29,11,51,27.60
2021,06,29,11,52,27.60
2021,06,29,11,53,27.60
2021,06,29,11,54,27.60
2021,06,29,11,55,27.60
2021,06,29,11,56,27.60
2021,06,29,11,57,27.60
2021,06,29,11,58,27.60
2021,06,29,11,59,27.70
2021,06,29,12,00,27.80
2021,06,29,12,01,27.80
2021,06,29,12,02,27.90
2021,06,29,12,03,27.90
2021,06,29,12,04,28.00
2021,06,29,12,05,28.10
2021,06,29,12,06,28.20
2021,06,29,12,07,28.20
2021,06,29,12,08,28.30
2021,06,29,12,09,28.30
2021,06,29,12,10,28.40
2021,06,29,12,11,28.40
2021,06,29,12,12,28.50
2021,06,29,12,13,28.60
2021,06,29,12,14,28.70
2021,06,29,12,15,28.80
2021,06,29,12,16,28.80
2021,06,29,12,17,29.00
2021,06,29,12,18,29.10
2021,06,29,12,19,29.30
2021,06,29,12,20,29.30
2021,06,29,12,21,29.40
2021,06,29,12,22,29.30
2021,06,29,12,23,29.30
2021,06,29,12,24,29.30
2021,06,29,12,25,29.30
2021,06,29,12,26,29.30
2021,06,29,12,27,29.30
2021,06,29,12,28,29.40
2021,06,29,12,29,29.50
2021,06,29,12,30,29.50
2021,06,29,12,31,29.50
2021,06,29,12,32,29.60
2021,06,29,12,33,29.60
2021,06,29,12,34,29.60
2021,06,29,12,35,29.70
2021,06,29,12,36,29.70
2021,06,29,12,37,29.70
2021,06,29,12,38,29.70
2021,06,29,12,39,29.80
2021,06,29,12,40,29.80
2021,06,29,12,41,29.80
2021,06,29,12,42,29.70
2021,06,29,12,43,29.70
2021,06,29,12,44,29.70
2021,06,29,12,45,29.80
2021,06,29,12,46,29.90
2021,06,29,12,47,30.00
2021,06,29,12,48,30.10
2021,06,29,12,49,30.20
2021,06,29,12,50,30.30
2021,06,29,12,51,30.40
2021,06,29,12,52,30.40
2021,06,29,12,53,30.40
2021,06,29,12,54,30.40
2021,06,29,12,55,30.30
2021,06,29,12,56,30.20
2021,06,29,12,57,30.20
2021,06,29,12,58,30.30
2021,06,29,12,59,30.30
2021,06,29,13,00,30.20
2021,06,29,13,01,30.20
2021,06,29,13,02,30.20
2021,06,29,13,03,30.20
2021,06,29,13,04,30.20
2021,06,29,13,05,30.30
2021,06,29,13,06,30.30
2021,06,29,13,07,30.30
2021,06,29,13,08,30.30
2021,06,29,13,09,30.30
2021,06,29,13,10,30.20
2021,06,29,13,11,30.10
2021,06,29,13,12,29.90
2021,06,29,13,13,29.80
2021,06,29,13,14,29.60
2021,06,29,13,15,29.50
2021,06,29,13,16,29.50
2021,06,29,13,17,29.50
2021,06,29,13,18,29.60
2021,06,29,13,19,29.60
2021,06,29,13,20,29.60
2021,06,29,13,21,29.60
2021,06,29,13,22,29.60
2021,06,29,13,23,29.60
2021,06,29,13,24,29.60
2021,06,29,13,25,29.60
2021,06,29,13,26,29.60
2021,06,29,13,27,29.60
2021,06,29,13,28,29.60
2021,06,29,13,29,29.70
2021,06,29,13,30,29.70
2021,06,29,13,31,29.70
2021,06,29,13,32,29.70
2021,06,29,13,33,29.70
2021,06,29,13,34,29.70
2021,06,29,13,35,29.70
2021,06,29,13,36,29.70
2021,06,29,13,37,29.80
2021,06,29,13,38,29.70
2021,06,29,13,39,29.70
2021,06,29,13,40,29.70
2021,06,29,13,41,29.70
2021,06,29,13,42,29.70
2021,06,29,13,43,29.70
2021,06,29,13,44,29.80
2021,06,29,13,45,29.80
2021,06,29,13,46,29.80
2021,06,29,13,47,29.80
2021,06,29,13,48,29.70
2021,06,29,13,49,29.70
2021,06,29,13,50,29.70
2021,06,29,13,51,29.70
2021,06,29,13,52,29.70
2021,06,29,13,53,29.70
2021,06,29,13,54,29.80
2021,06,29,13,55,29.90
2021,06,29,13,56,30.00
2021,06,29,13,57,30.10
2021,06,29,13,58,30.10
2021,06,29,13,59,30.10
2021,06,29,14,00,30.10
2021,06,29,14,01,30.20
2021,06,29,14,02,30.20
2021,06,29,14,03,30.30
2021,06,29,14,04,30.20
2021,06,29,14,05,30.10
2021,06,29,14,06,30.10
2021,06,29,14,07,30.10
2021,06,29,14,08,30.10
2021,06,29,14,09,30.20
2021,06,29,14,10,30.20
2021,06,29,14,11,30.20
2021,06,29,14,12,30.30
2021,06,29,14,13,30.40
2021,06,29,14,14,30.60
2021,06,29,14,15,30.70
2021,06,29,14,16,30.70
2021,06,29,14,17,30.70
2021,06,29,14,18,30.60
2021,06,29,14,19,30.50
2021,06,29,14,20,30.50
2021,06,29,14,21,30.50
2021,06,29,14,22,30.50
2021,06,29,14,23,30.60
2021,06,29,14,24,30.60
2021,06,29,14,25,30.70
2021,06,29,14,26,30.80
2021,06,29,14,27,30.90
2021,06,29,14,28,31.00
2021,06,29,14,29,31.00
2021,06,29,14,30,31.10
2021,06,29,14,31,31.10
2021,06,29,14,32,31.10
2021,06,29,14,33,31.10
2021,06,29,14,34,31.10
2021,06,29,14,35,31.10
2021,06,29,14,36,31.10
2021,06,29,14,37,31.10
2021,06,29,14,38,31.10
2021,06,29,14,39,31.10
2021,06,29,14,40,31.20
2021,06,29,14,41,31.10
2021,06,29,14,42,31.10
2021,06,29,14,43,31.00
2021,06,29,14,44,30.90
2021,06,29,14,45,30.90
2021,06,29,14,46,30.90
2021,06,29,14,47,30.80
2021,06,29,14,48,30.80
2021,06,29,14,49,30.70
2021,06,29,14,50,30.70
2021,06,29,14,51,30.50
2021,06,29,14,52,30.40
2021,06,29,14,53,30.40
2021,06,29,14,54,30.40
2021,06,29,14,55,30.40
2021,06,29,14,56,30.30
2021,06,29,14,57,30.20
2021,06,29,14,58,30.10
2021,06,29,14,59,30.00
2021,06,29,15,00,30.00
2021,06,29,15,01,29.90
2021,06,29,15,02,29.90
2021,06,29,15,03,29.90
2021,06,29,15,04,30.00
2021,06,29,15,05,30.00
2021,06,29,15,06,30.00
2021,06,29,15,07,30.10
2021,06,29,15,08,30.20
2021,06,29,15,09,30.20
2021,06,29,15,10,30.20
2021,06,29,15,11,30.20
2021,06,29,15,12,30.20
2021,06,29,15,13,30.20
2021,06,29,15,14,30.20
2021,06,29,15,15,30.20
2021,06,29,15,16,30.10
2021,06,29,15,17,30.10
2021,06,29,15,18,30.10
2021,06,29,15,19,30.10
2021,06,29,15,20,30.00
2021,06,29,15,21,30.00
2021,06,29,15,22,29.90
2021,06,29,15,23,29.80
2021,06,29,15,24,29.80
2021,06,29,15,25,29.90
2021,06,29,15,26,29.90
2021,06,29,15,27,29.90
2021,06,29,15,28,29.90
2021,06,29,15,29,29.80
2021,06,29,15,30,29.80
2021,06,29,15,31,29.80
2021,06,29,15,32,29.80
2021,06,29,15,33,29.80
2021,06,29,15,34,29.80
2021,06,29,15,35,29.80
2021,06,29,15,36,29.80
2021,06,29,15,37,29.80
2021,06,29,15,38,29.80
2021,06,29,15,39,29.70
2021,06,29,15,40,29.60
2021,06,29,15,41,29.50
2021,06,29,15,42,29.40
2021,06,29,15,43,29.30
2021,06,29,15,44,29.30
2021,06,29,15,45,29.20
2021,06,29,15,46,29.20
2021,06,29,15,47,29.20
2021,06,29,15,48,29.20
2021,06,29,15,49,29.20
2021,06,29,15,50,29.20
2021,06,29,15,51,29.10
2021,06,29,15,52,29.10
2021,06,29,15,53,29.10
2021,06,29,15,54,29.10
2021,06,29,15,55,29.10
2021,06,29,15,56,29.20
2021,06,29,15,57,29.10
2021,06,29,15,58,29.10
2021,06,29,15,59,29.10
2021,06,29,16,00,29.10
2021,06,29,16,01,29.00
2021,06,29,16,02,28.90
2021,06,29,16,03,28.80
2021,06,29,16,04,28.70
2021,06,29,16,05,28.70
2021,06,29,16,06,28.70
2021,06,29,16,07,28.70
2021,06,29,16,08,28.70
2021,06,29,16,09,28.70
2021,06,29,16,10,28.80
2021,06,29,16,11,28.80
2021,06,29,16,12,28.80
2021,06,29,16,13,28.80
2021,06,29,16,14,28.80
2021,06,29,16,15,28.80
2021,06,29,16,16,28.80
2021,06,29,16,17,28.80
2021,06,29,16,18,28.80
2021,06,29,16,19,28.90
2021,06,29,16,20,28.90
2021,06,29,16,21,29.00
2021,06,29,16,22,29.00
2021,06,29,16,23,29.00
2021,06,29,16,24,29.00
2021,06,29,16,25,29.00
2021,06,29,16,26,29.00
2021,06,29,16,27,29.00
2021,06,29,16,28,29.00
2021,06,29,16,29,29.00
2021,06,29,16,30,29.00
2021,06,29,16,31,29.00
2021,06,29,16,32,28.90
2021,06,29,16,33,28.90
2021,06,29,16,34,29.00
2021,06,29,16,35,29.00
2021,06,29,16,36,29.10
2021,06,29,16,37,29.10
2021,06,29,16,38,29.20
2021,06,29,16,39,29.20
2021,06,29,16,40,29.10
2021,06,29,16,41,29.00
2021,06,29,16,42,28.90
2021,06,29,16,43,28.80
2021,06,29,16,44,28.70
2021,06,29,16,45,28.70
2021,06,29,16,46,28.70
2021,06,29,16,47,28.60
2021,06,29,16,48,28.60
2021,06,29,16,49,28.60
2021,06,29,16,50,28.60
2021,06,29,16,51,28.50
2021,06,29,16,52,28.50
2021,06,29,16,53,28.50
2021,06,29,16,54,28.60
2021,06,29,16,55,28.60
2021,06,29,16,56,28.60
2021,06,29,16,57,28.60
2021,06,29,16,58,28.60
2021,06,29,16,59,28.70
2021,06,29,17,00,28.80
2021,06,29,17,01,28.80
2021,06,29,17,02,28.90
2021,06,29,17,03,28.90
2021,06,29,17,04,28.90
2021,06,29,17,05,28.90
2021,06,29,17,06,29.00
2021,06,29,17,07,29.00
2021,06,29,17,08,29.00
2021,06,29,17,09,29.00
2021,06,29,17,10,28.90
2021,06,29,17,11,28.90
2021,06,29,17,12,28.90
2021,06,29,17,13,29.00
2021,06,29,17,14,29.00
2021,06,29,17,15,29.10
2021,06,29,17,16,29.20
2021,06,29,17,17,29.20
2021,06,29,17,18,29.20
2021,06,29,17,19,29.20